1486774800.31,48661,10.0,73772.8,-8.99,-11.77,-12.29,0,*5D
1486774801.57,48662,10.0,73768.0,-8.95,-11.73,-12.25,0,*5A
1486774802.82,48663,10.0,73770.8,-8.95,-11.73,-12.25,0,*5B
1486774804.08,48664,10.0,73774.8,-8.95,-11.77,-12.25,0,*58
1486774805.32,48665,10.0,73770.8,-8.97,-11.81,-12.21,0,*56
1486774806.55,48666,10.0,73768.0,-8.97,-11.81,-12.21,0,*55
1486774807.79,48667,10.0,73770.5,-8.97,-11.81,-12.21,0,*54
1486774809.03,48668,10.0,73768.8,-8.97,-11.77,-12.29,0,*5A
1486774810.27,48669,10.0,73766.3,-8.97,-11.89,-12.21,0,*52
1486774811.5,48670,10.0,73768.5,-8.97,-11.81,-12.29,0,*5A
1486774812.74,48671,10.0,73768.5,-8.97,-11.81,-12.29,0,*5B
1486774814.0,48672,10.0,73770.0,-8.99,-11.81,-12.29,0,*56
1486774815.23,48673,10.0,73766.8,-8.97,-11.77,-12.29,0,*50
1486774816.49,48674,10.0,73766.5,-8.97,-11.67,-12.15,0,*59
1486774817.73,48675,10.0,73770.8,-8.97,-11.77,-12.21,0,*5E
1486774819.02,48676,10.0,73766.3,-8.99,-11.77,-12.15,0,*54
1486774820.25,48677,9.94,73766.8,-8.97,-11.81,-12.21,0,*55
1486774821.49,48678,10.0,73768.8,-8.97,-11.77,-12.21,0,*53
1486774822.72,48679,10.0,73766.3,-8.97,-11.81,-12.29,0,*53
1486774823.96,48680,10.0,73768.5,-8.97,-11.81,-12.21,0,*5D
1486774825.22,48681,10.0,73768.5,-8.99,-11.77,-12.21,0,*5B
1486774826.46,48682,9.94,73764.5,-8.97,-11.63,-12.21,0,*53
1486774827.7,48683,10.0,73772.5,-8.97,-11.77,-12.29,0,*5F
1486774828.94,48684,10.0,73770.5,-8.97,-11.81,-12.29,0,*51
1486774830.2,48685,10.0,73772.0,-8.99,-11.77,-12.21,0,*5F
1486774831.44,48686,10.0,73770.3,-8.97,-11.77,-12.21,0,*52
1486774832.68,48687,10.0,73770.3,-8.97,-11.67,-12.21,0,*52
1486774833.92,48688,10.0,73774.3,-8.97,-11.67,-12.21,0,*5D
1486774835.18,48689,9.94,73768.3,-8.97,-11.77,-12.15,0,*5A
1486774836.41,48690,10.0,73774.5,-8.97,-11.77,-12.29,0,*5D
1486774837.65,48691,9.94,73772.0,-8.97,-11.77,-12.29,0,*5C
1486774838.91,48692,10.0,73774.0,-8.99,-11.77,-12.29,0,*51
1486774840.18,48693,10.0,73770.8,-8.99,-11.77,-12.21,0,*58
1486774841.42,48694,10.0,73774.5,-8.97,-11.77,-12.29,0,*59
1486774842.67,48695,10.0,73772.5,-8.99,-11.81,-12.29,0,*5F
1486774843.93,48696,9.94,73768.8,-8.99,-11.81,-12.29,0,*5C
1486774845.17,48697,10.0,73770.3,-8.97,-11.81,-12.29,0,*53
1486774846.4,48698,10.0,73772.3,-8.97,-11.81,-12.29,0,*5C
1486774847.64,48699,10.0,73772.3,-8.97,-11.81,-12.21,0,*55
1486774848.9,48700,10.0,73772.3,-8.99,-11.77,-12.21,0,*53
1486774850.16,48701,10.0,73770.5,-8.99,-11.77,-12.21,0,*52
1486774851.4,48702,10.0,73772.0,-8.97,-11.67,-12.21,0,*5E
1486774852.64,48703,9.94,73768.5,-8.97,-11.77,-12.21,0,*5E
1486774853.9,48704,10.0,73770.0,-8.99,-11.77,-12.21,0,*57
1486774855.16,48705,10.0,73766.8,-8.99,-11.77,-12.21,0,*56
1486774856.4,48706,10.0,73768.3,-8.97,-11.77,-12.21,0,*5B
1486774857.66,48707,10.0,73770.5,-8.97,-11.77,-12.07,0,*5E
1486774858.95,48708,9.94,73766.8,-8.99,-11.67,-12.15,0,*5D
1486774860.24,48709,9.94,73764.0,-8.99,-11.67,-12.07,0,*5F
1486774861.52,48710,10.0,73768.8,-8.99,-11.67,-12.07,0,*57
1486774862.81,48711,10.0,73766.8,-8.99,-11.63,-12.07,0,*52
1486774864.1,48712,10.0,73762.5,-8.99,-11.59,-12.07,0,*58
1486774865.36,48713,10.0,73758.3,-8.97,-11.59,-12.07,0,*57
1486774866.65,48714,9.94,73762.0,-8.99,-11.63,-12.07,0,*57
1486774867.92,48715,9.94,73752.5,-8.97,-11.63,-12.07,0,*58
1486774869.18,48716,10.0,73756.3,-8.97,-11.63,-12.15,0,*58
1486774870.47,48717,10.0,73762.3,-8.99,-11.63,-12.07,0,*54
1486774871.73,48718,9.94,73756.3,-8.97,-11.59,-12.15,0,*5F
1486774872.99,48719,9.94,73758.5,-8.97,-11.63,-12.07,0,*54
1486774874.28,48720,9.94,73758.5,-8.99,-11.59,-12.15,0,*5A
1486774875.54,48721,9.94,73756.8,-8.97,-11.77,-12.07,0,*5A
1486774876.8,48722,10.0,73766.0,-8.97,-11.67,-12.07,0,*58
1486774878.07,48723,9.94,73760.5,-8.97,-11.63,-12.07,0,*5D
1486774879.33,48724,10.0,73762.3,-8.97,-11.63,-12.15,0,*59
1486774880.59,48725,10.0,73764.0,-8.97,-11.59,-12.07,0,*52
1486774881.88,48726,9.94,73766.3,-8.99,-11.63,-12.15,0,*55
1486774883.14,48727,10.0,73768.3,-8.97,-11.59,-12.07,0,*50
1486774884.41,48728,10.0,73766.0,-8.97,-11.63,-12.07,0,*56
1486774885.67,48729,10.0,73764.5,-8.97,-11.67,-12.15,0,*50
1486774886.96,48730,10.0,73768.8,-8.99,-11.67,-12.07,0,*55
1486774888.22,48731,9.94,73766.0,-8.97,-11.63,-12.15,0,*5D
1486774889.48,48732,10.0,73766.3,-8.97,-11.67,-12.15,0,*5A
1486774890.74,48733,10.0,73768.3,-8.97,-11.67,-12.07,0,*58
1486774892.01,48734,9.94,73764.8,-8.97,-11.63,-12.07,0,*5B
1486774893.29,48735,10.0,73768.8,-8.99,-11.63,-12.07,0,*54
1486774894.56,48736,10.0,73766.8,-8.97,-11.63,-12.07,0,*59
1486774895.85,48737,10.0,73766.5,-8.99,-11.63,-12.07,0,*56
1486774897.13,48738,9.94,73766.0,-8.99,-11.63,-12.15,0,*5A
1486774898.4,48739,10.0,73768.3,-8.99,-11.63,-12.03,0,*5C
1486774899.66,48740,10.0,73768.3,-8.97,-11.67,-12.07,0,*5C
1486774900.92,48741,10.0,73766.8,-8.97,-11.63,-12.15,0,*5A
1486774902.16,48742,10.0,73766.0,-8.97,-11.63,-12.03,0,*5E
1486774903.4,48743,10.0,73766.5,-8.97,-11.59,-12.03,0,*56
1486774904.67,48744,10.0,73764.3,-8.97,-11.59,-11.93,0,*5B
1486774905.93,48745,10.0,73766.8,-8.97,-11.51,-11.89,0,*59
1486774907.19,48746,10.0,73768.3,-8.97,-11.51,-11.89,0,*5A
1486774908.45,48747,10.0,73770.0,-8.97,-11.51,-11.89,0,*5B
1486774909.71,48748,10.0,73768.3,-8.97,-11.51,-11.89,0,*54
1486774910.97,48749,10.0,73770.0,-8.97,-11.51,-11.81,0,*5D
1486774912.23,48750,9.94,73766.0,-8.99,-11.45,-11.81,0,*5E
1486774913.47,48751,9.94,73766.0,-8.97,-11.45,-11.81,0,*51
1486774914.72,48752,10.0,73764.3,-8.97,-11.51,-11.81,0,*57
1486774915.96,48753,10.0,73766.8,-8.97,-11.45,-11.81,0,*53
1486774917.21,48754,10.0,73768.0,-8.97,-11.45,-11.67,0,*5C
1486774918.44,48755,10.0,73766.3,-8.97,-11.19,-11.59,0,*59
1486774919.7,48756,10.0,73766.3,-8.97,-11.37,-11.67,0,*5B
1486774920.93,48757,10.0,73766.3,-8.97,-11.11,-11.59,0,*53
1486774922.17,48758,10.0,73766.3,-8.97,-10.97,-11.37,0,*5B
1486774923.41,48759,10.0,73770.0,-8.97,-10.97,-11.33,0,*5E
1486774924.62,48760,10.0,73766.8,-8.97,-10.97,-11.23,0,*55
1486774925.84,48761,10.0,73766.5,-8.97,-10.97,-11.23,0,*54
1486774927.05,48762,10.0,73766.3,-8.97,-10.85,-11.11,0,*55
1486774928.33,48763,9.94,73762.3,-8.95,-10.79,-11.07,0,*52
1486774929.59,48764,9.94,73764.5,-8.95,-10.79,-11.15,0,*56
1486774930.83,48765,10.0,73766.0,-8.95,-10.93,-11.19,0,*5F
1486774932.04,48766,10.0,73766.8,-8.93,-10.93,-11.15,0,*56
1486774933.3,48767,10.0,73768.3,-8.95,-10.89,-11.07,0,*59
1486774934.59,48768,9.94,73762.8,-8.95,-10.79,-11.07,0,*59
1486774935.8,48769,10.0,73762.8,-8.93,-10.89,-11.15,0,*52
1486774937.04,48770,10.0,73770.3,-8.93,-10.93,-11.29,0,*5E
1486774938.28,48771,10.0,73772.3,-8.93,-11.07,-11.41,0,*5D
1486774939.49,48772,10.0,73770.0,-8.93,-11.15,-11.41,0,*5D
1486774940.73,48773,9.94,73766.0,-8.93,-11.07,-11.41,0,*5F
1486774941.97,48774,10.0,73766.8,-8.93,-11.07,-11.45,0,*5C
1486774943.24,48775,9.94,73766.0,-8.95,-11.07,-11.41,0,*5F
1486774944.48,48776,10.0,73770.5,-8.93,-11.01,-11.29,0,*52
1486774945.74,48777,10.0,73766.8,-8.95,-11.01,-11.29,0,*55
1486774946.99,48778,10.0,73766.3,-8.93,-11.01,-11.29,0,*5C
1486774948.25,48779,10.0,73766.3,-8.93,-11.07,-11.33,0,*50
1486774949.49,48780,9.94,73762.8,-8.93,-11.07,-11.41,0,*53
1486774950.72,48781,10.0,73766.8,-8.95,-11.15,-11.45,0,*53
1486774951.93,48782,9.94,73760.8,-8.93,-11.15,-11.41,0,*52
1486774953.14,48783,10.0,73768.8,-8.93,-11.19,-11.45,0,*5B
1486774954.35,48784,9.94,73762.3,-8.93,-11.15,-11.45,0,*50
1486774955.56,48785,10.0,73764.3,-8.93,-11.19,-11.45,0,*5D
1486774956.8,48786,10.0,73764.0,-8.93,-11.15,-11.55,0,*53
1486774958.04,48787,9.94,73762.5,-8.95,-11.01,-11.45,0,*50
1486774959.28,48788,10.0,73760.5,-8.93,-11.07,-11.41,0,*5B
1486774960.52,48789,10.0,73762.0,-8.93,-11.07,-11.45,0,*5E
1486774961.76,48790,10.0,73762.3,-8.93,-11.07,-11.41,0,*52
1486774963.0,48791,9.94,73758.0,-8.93,-11.07,-11.41,0,*53
1486774964.23,48792,9.94,73758.8,-8.93,-10.93,-11.33,0,*59
1486774965.48,48793,10.0,73764.3,-8.93,-11.01,-11.29,0,*59
1486774966.72,48794,10.0,73756.5,-8.93,-11.01,-11.29,0,*5E
1486774967.93,48795,10.0,73760.5,-8.89,-10.93,-11.23,0,*54
1486774969.19,48796,10.0,73760.5,-8.91,-10.97,-11.29,0,*50
1486774970.45,48797,10.0,73758.0,-8.91,-10.97,-11.29,0,*51
1486774971.69,48798,9.94,73754.5,-8.93,-11.07,-11.41,0,*5A
1486774972.91,48799,10.0,73766.0,-8.93,-11.15,-11.45,0,*5C
1486774974.15,48800,10.0,73760.5,-8.93,-11.07,-11.41,0,*54
1486774975.41,48801,10.0,73758.5,-8.91,-10.97,-11.29,0,*51
1486774976.67,48802,10.0,73758.3,-8.91,-10.97,-11.29,0,*52
1486774977.93,48803,10.0,73760.3,-8.91,-11.01,-11.29,0,*5D
1486774979.19,48804,9.94,73754.0,-8.91,-10.97,-11.29,0,*54
1486774980.46,48805,10.0,73758.3,-8.89,-11.07,-11.37,0,*5B
1486774981.71,48806,10.0,73756.5,-8.89,-11.07,-11.33,0,*5C
1486774982.95,48807,10.0,73760.5,-8.91,-11.11,-11.41,0,*56
1486774984.16,48808,10.0,73760.8,-8.89,-11.11,-11.41,0,*50
1486774985.41,48809,9.94,73758.0,-8.91,-11.11,-11.51,0,*59
1486774986.64,48810,10.0,73762.3,-8.91,-11.11,-11.41,0,*50
1486774987.88,48811,10.0,73760.8,-8.89,-10.93,-11.33,0,*56
1486774989.11,48812,9.94,73758.0,-8.91,-10.97,-11.23,0,*59
1486774990.37,48813,9.94,73758.5,-8.91,-11.01,-11.29,0,*5C
1486774991.59,48814,10.0,73758.5,-8.89,-11.11,-11.41,0,*5D
1486774992.82,48815,10.0,73762.8,-8.89,-11.11,-11.37,0,*5D
1486774994.07,48816,10.0,73756.0,-8.91,-11.23,-11.51,0,*56
1486774995.28,48817,10.0,73756.5,-8.89,-11.11,-11.45,0,*5A
1486774996.49,48818,10.0,73762.8,-8.89,-11.11,-11.45,0,*55
1486774997.72,48819,10.0,73760.0,-8.89,-11.11,-11.37,0,*51
1486774998.98,48820,9.94,73758.0,-8.91,-11.23,-11.37,0,*53
1486775000.24,48821,9.94,73756.5,-8.91,-11.15,-11.29,0,*58
1486775001.45,48822,9.94,73752.5,-8.89,-10.93,-11.23,0,*57
1486775002.68,48823,10.0,73758.0,-8.89,-11.07,-11.19,0,*53
1486775003.92,48824,10.0,73756.3,-8.91,-10.97,-11.15,0,*59
1486775005.13,48825,10.0,73760.0,-8.89,-10.85,-11.11,0,*56
1486775006.35,48826,10.0,73760.8,-8.91,-10.85,-11.11,0,*5C
1486775007.58,48827,10.0,73760.0,-8.91,-10.89,-11.01,0,*50
1486775008.81,48828,9.94,73754.3,-8.91,-10.89,-11.23,0,*5F
1486775010.05,48829,9.94,73758.5,-8.91,-11.01,-11.41,0,*5B
1486775011.28,48830,10.0,73760.3,-8.91,-11.15,-11.41,0,*56
1486775012.52,48831,10.0,73760.3,-8.89,-11.07,-11.45,0,*59
1486775013.75,48832,9.94,73756.5,-8.89,-11.11,-11.51,0,*58
1486775015.04,48833,10.0,73762.0,-8.91,-11.29,-11.55,0,*5F
1486775016.27,48834,9.94,73756.5,-8.89,-11.19,-11.51,0,*56
1486775017.52,48835,10.0,73760.0,-8.91,-11.15,-11.51,0,*52
1486775018.76,48836,10.0,73766.8,-8.89,-11.23,-11.51,0,*5D
1486775019.99,48837,10.0,73756.5,-8.89,-11.19,-11.55,0,*51
1486775021.23,48838,10.0,73760.3,-8.89,-11.23,-11.63,0,*52
1486775022.49,48839,10.0,73766.5,-8.91,-11.23,-11.51,0,*5B
1486775023.7,48840,9.94,73760.5,-8.89,-11.11,-11.45,0,*58
1486775024.96,48841,10.0,73762.0,-8.91,-11.23,-11.55,0,*50
1486775026.25,48842,9.94,73760.5,-8.91,-11.29,-11.55,0,*59
1486775027.53,48843,10.0,73766.0,-8.87,-11.33,-11.51,0,*50
1486775028.8,48844,10.0,73762.0,-8.89,-11.33,-11.63,0,*58
1486775030.08,48845,10.0,73768.0,-8.91,-11.37,-11.59,0,*5D
1486775031.31,48846,10.0,73760.0,-8.91,-11.23,-11.41,0,*52
1486775032.55,48847,10.0,73760.5,-8.91,-10.97,-11.23,0,*59
1486775033.76,48848,10.0,73762.3,-8.89,-10.93,-11.11,0,*5A
1486775035.02,48849,9.94,73762.0,-8.91,-10.97,-11.29,0,*5D
1486775036.25,48850,10.0,73766.3,-8.91,-11.15,-11.41,0,*50
1486775037.51,48851,10.0,73764.3,-8.91,-11.23,-11.55,0,*51
1486775038.75,48852,10.0,73762.3,-8.89,-11.23,-11.51,0,*5F
1486775040.0,48853,10.0,73766.8,-8.91,-11.23,-11.59,0,*5F
1486775041.26,48854,10.0,73764.8,-8.91,-11.23,-11.59,0,*58
1486775042.52,48855,9.94,73758.8,-8.89,-11.33,-11.77,0,*5D
1486775043.78,48856,10.0,73762.0,-8.89,-11.37,-11.77,0,*5A
1486775045.03,48857,9.94,73766.5,-8.91,-11.41,-11.81,0,*5A
1486775046.29,48858,9.94,73760.0,-8.89,-11.33,-11.77,0,*50
1486775047.55,48859,9.94,73760.0,-8.89,-11.37,-11.67,0,*54
1486775048.81,48860,10.0,73762.0,-8.89,-11.37,-11.67,0,*5E
1486775050.07,48861,9.94,73762.0,-8.89,-11.37,-11.67,0,*5F
1486775051.33,48862,9.94,73762.5,-8.89,-11.37,-11.77,0,*5D
1486775052.56,48863,10.0,73766.8,-8.89,-11.45,-11.81,0,*50
1486775053.8,48864,9.94,73764.0,-8.89,-11.45,-11.81,0,*57
1486775055.04,48865,10.0,73764.3,-8.89,-11.45,-11.81,0,*56
1486775056.28,48866,10.0,73764.8,-8.89,-11.45,-11.81,0,*55
1486775057.52,48867,10.0,73766.8,-8.89,-11.45,-11.81,0,*54
1486775058.8,48868,10.0,73766.5,-8.91,-11.51,-11.93,0,*54
1486775060.04,48869,10.0,73764.8,-8.89,-11.45,-11.89,0,*52
1486775061.3,48870,10.0,73764.5,-8.89,-11.51,-11.93,0,*54
1486775062.58,48871,10.0,73766.3,-8.91,-11.51,-11.85,0,*5B
1486775063.87,48872,9.94,73766.5,-8.91,-11.51,-11.93,0,*5F
1486775065.11,48873,10.0,73766.0,-8.89,-11.45,-11.89,0,*59
1486775066.4,48874,10.0,73770.3,-8.91,-11.55,-11.93,0,*5D
1486775067.68,48875,10.0,73766.5,-8.91,-11.51,-11.93,0,*58
1486775068.96,48876,9.94,73762.3,-8.91,-11.51,-11.85,0,*5C
1486775070.24,48877,9.94,73760.0,-8.91,-11.51,-11.85,0,*5D
1486775071.52,48878,9.94,73764.3,-8.91,-11.51,-11.93,0,*55
1486775072.78,48879,9.94,73758.8,-8.89,-11.55,-11.93,0,*59
1486775074.07,48880,9.94,73764.5,-8.91,-11.55,-12.07,0,*58
1486775075.35,48881,10.0,73766.5,-8.91,-11.55,-11.97,0,*53
1486775076.63,48882,9.94,73764.8,-8.91,-11.55,-12.07,0,*5A
1486775077.92,48883,10.0,73762.5,-8.91,-11.55,-11.97,0,*51
1486775079.18,48884,10.0,73762.0,-8.89,-11.51,-11.93,0,*5F
1486775080.46,48885,9.94,73760.5,-8.91,-11.55,-11.97,0,*57
1486775081.74,48886,9.94,73758.8,-8.91,-11.55,-11.97,0,*54
1486775083.02,48887,9.94,73760.8,-8.91,-11.55,-11.97,0,*55
1486775084.3,48888,9.94,73756.8,-8.91,-11.51,-11.85,0,*5D
1486775085.58,48889,10.0,73760.3,-8.91,-11.51,-11.93,0,*5B
1486775086.85,48890,9.94,73760.3,-8.89,-11.51,-11.93,0,*5A
1486775088.12,48891,9.94,73762.5,-8.91,-11.51,-11.85,0,*55
1486775089.4,48892,9.94,73756.8,-8.91,-11.51,-11.85,0,*56
1486775090.68,48893,10.0,73762.3,-8.91,-11.55,-11.85,0,*53
1486775091.97,48894,9.94,73764.3,-8.91,-11.51,-11.93,0,*57
1486775093.22,48895,9.94,73756.3,-8.91,-11.41,-11.85,0,*50
1486775094.51,48896,10.0,73762.3,-8.91,-11.55,-11.93,0,*51
1486775095.79,48897,10.0,73762.0,-8.91,-11.51,-11.93,0,*54
1486775097.07,48898,9.94,73762.5,-8.91,-11.51,-11.85,0,*5C
1486775098.36,48899,9.94,73752.3,-8.91,-11.55,-11.93,0,*5E
1486775099.64,48900,9.94,73758.8,-8.91,-11.55,-11.97,0,*5B
1486775100.92,48901,10.0,73756.0,-8.91,-11.51,-11.97,0,*5E
1486775102.18,48902,10.0,73760.3,-8.93,-11.63,-12.11,0,*53
1486775103.42,48903,9.94,73756.8,-8.93,-11.59,-12.03,0,*58
1486775104.71,48904,10.0,73760.0,-8.91,-11.55,-11.97,0,*5F
1486775105.99,48905,10.0,73760.3,-8.91,-11.55,-11.97,0,*5E
1486775107.24,48906,9.94,73758.5,-8.93,-11.73,-12.15,0,*52
1486775108.53,48907,10.0,73764.0,-8.91,-11.59,-11.97,0,*50
1486775109.79,48908,9.94,73756.0,-8.95,-11.63,-12.03,0,*5C
1486775111.05,48909,9.94,73756.0,-8.93,-11.55,-11.97,0,*50
1486775112.31,48910,9.94,73758.0,-8.93,-11.59,-11.97,0,*54
1486775113.6,48911,10.0,73756.3,-8.91,-11.55,-11.97,0,*5B
1486775114.87,48912,9.94,73752.5,-8.91,-11.51,-11.97,0,*5C
1486775116.11,48913,9.94,73752.5,-8.93,-11.55,-12.03,0,*55
1486775117.35,48914,9.94,73758.0,-8.93,-11.55,-12.03,0,*52
1486775118.62,48915,9.94,73754.8,-8.93,-11.55,-11.97,0,*5D
1486775119.88,48916,10.0,73758.5,-8.93,-11.55,-11.97,0,*5E
1486775121.14,48917,9.94,73762.3,-8.93,-11.55,-11.89,0,*50
1486775122.41,48918,10.0,73762.0,-8.93,-11.55,-11.97,0,*50
1486775123.67,48919,10.0,73760.5,-8.93,-11.55,-11.97,0,*51
1486775124.93,48920,10.0,73760.8,-8.93,-11.55,-11.97,0,*5B
1486775126.2,48921,10.0,73760.5,-8.93,-11.59,-11.89,0,*59
1486775127.46,48922,9.94,73760.8,-8.93,-11.55,-11.97,0,*59
1486775128.72,48923,9.94,73760.0,-8.93,-11.55,-11.89,0,*57
1486775129.99,48924,10.0,73762.0,-8.93,-11.55,-11.89,0,*50
1486775131.25,48925,9.94,73758.3,-8.93,-11.55,-11.97,0,*5E
1486775132.52,48926,10.0,73766.5,-8.93,-11.59,-11.89,0,*5E
1486775133.78,48927,10.0,73760.8,-8.93,-11.55,-11.89,0,*53
1486775135.02,48928,10.0,73762.0,-8.93,-11.59,-12.03,0,*51
1486775136.31,48929,9.94,73760.8,-8.91,-11.51,-11.93,0,*50
1486775137.57,48930,9.94,73760.5,-8.93,-11.59,-11.97,0,*56
1486775138.83,48931,9.94,73760.8,-8.93,-11.59,-11.97,0,*57
1486775140.1,48932,9.94,73762.3,-8.93,-11.63,-12.11,0,*50
1486775141.36,48933,10.0,73760.8,-8.93,-11.63,-12.11,0,*51
1486775142.63,48934,10.0,73766.8,-8.93,-11.59,-12.11,0,*5F
1486775143.89,48935,9.94,73762.0,-8.93,-11.59,-12.11,0,*5E
1486775145.15,48936,10.0,73762.0,-8.93,-11.63,-12.11,0,*54
1486775146.42,48937,10.0,73762.0,-8.93,-11.63,-12.11,0,*55
1486775147.68,48938,9.94,73756.5,-8.93,-11.63,-12.11,0,*5A
1486775148.94,48939,10.0,73764.3,-8.93,-11.73,-12.15,0,*5E
1486775150.23,48940,10.0,73762.0,-8.95,-11.63,-12.11,0,*53
1486775151.51,48941,10.0,73760.0,-8.95,-11.63,-12.15,0,*56
1486775152.77,48942,10.0,73760.8,-8.93,-11.59,-12.15,0,*5A
1486775154.06,48943,10.0,73764.8,-8.95,-11.73,-12.11,0,*51
1486775155.35,48944,9.94,73758.0,-8.95,-11.63,-12.11,0,*57
1486775156.62,48945,9.94,73758.0,-8.95,-11.73,-12.15,0,*53
1486775157.91,48946,10.0,73760.0,-8.95,-11.63,-12.15,0,*51
1486775159.2,48947,10.0,73762.3,-8.95,-11.63,-12.15,0,*50
1486775160.46,48948,10.0,73762.3,-8.93,-11.63,-12.11,0,*5D
1486775161.74,48949,9.94,73762.3,-8.95,-11.73,-12.15,0,*5F
1486775163.0,48950,10.0,73758.3,-8.93,-11.63,-12.15,0,*50
1486775164.29,48951,10.0,73764.0,-8.95,-11.63,-12.15,0,*57
1486775165.55,48952,10.0,73760.8,-8.93,-11.63,-12.11,0,*56
1486775166.81,48953,9.94,73762.0,-8.93,-11.73,-12.11,0,*56
1486775168.1,48954,10.0,73762.3,-8.95,-11.63,-12.11,0,*56
1486775169.39,48955,9.94,73760.5,-8.95,-11.63,-12.11,0,*57
1486775170.67,48956,9.94,73762.8,-8.95,-11.59,-12.11,0,*5D
1486775171.93,48957,9.94,73760.5,-8.93,-11.73,-12.11,0,*52
1486775173.22,48958,10.0,73760.0,-8.95,-11.63,-12.11,0,*5A
1486775174.51,48959,9.94,73762.3,-8.95,-11.63,-12.15,0,*5F
1486775175.77,48960,10.0,73764.0,-8.95,-11.63,-12.25,0,*56
1486775177.03,48961,9.94,73762.3,-8.93,-11.73,-12.11,0,*57
1486775178.31,48962,9.94,73760.8,-8.95,-11.73,-12.15,0,*56
1486775179.59,48963,9.94,73766.3,-8.95,-11.73,-12.15,0,*57
1486775180.84,48964,9.94,73764.0,-8.93,-11.73,-12.15,0,*56
1486775182.1,48965,10.0,73766.5,-8.93,-11.73,-12.11,0,*53
1486775183.37,48966,10.0,73764.0,-8.93,-11.63,-12.11,0,*51
1486775184.65,48967,9.94,73762.8,-8.95,-11.63,-12.15,0,*52
1486775185.93,48968,10.0,73764.8,-8.95,-11.73,-12.11,0,*58
1486775187.22,48969,9.94,73764.5,-8.95,-11.63,-12.11,0,*58
1486775188.51,48970,9.94,73760.5,-8.95,-11.63,-12.15,0,*54
1486775189.77,48971,10.0,73766.5,-8.93,-11.63,-12.15,0,*53
1486775191.05,48972,10.0,73766.5,-8.95,-11.73,-12.15,0,*57
1486775192.28,48973,9.94,73760.8,-8.93,-11.73,-12.25,0,*53
1486775193.54,48974,9.94,73760.8,-8.95,-11.73,-12.25,0,*52
1486775194.82,48975,9.94,73760.0,-8.95,-11.73,-12.15,0,*50
1486775196.1,48976,9.94,73766.5,-8.95,-11.77,-12.15,0,*57
1486775197.38,48977,9.94,73766.0,-8.95,-11.77,-12.15,0,*56
1486775198.62,48978,9.94,73766.3,-8.93,-11.77,-12.25,0,*5C
1486775199.88,48979,9.94,73766.5,-8.95,-11.77,-12.25,0,*5B
1486775201.14,48980,9.94,73762.8,-8.95,-11.77,-12.25,0,*5D
1486775202.37,48981,9.94,73766.3,-8.93,-11.77,-12.25,0,*5A
1486775203.61,48982,10.0,73764.8,-8.97,-11.81,-12.29,0,*58
1486775204.84,48983,9.94,73762.5,-8.97,-11.81,-12.29,0,*59
1486775206.08,48984,9.94,73768.5,-8.97,-11.89,-12.29,0,*56
1486775207.32,48985,9.94,73764.0,-8.97,-11.89,-12.29,0,*57
1486775208.56,48986,10.0,73764.5,-8.97,-11.89,-12.29,0,*54
1486775209.79,48987,9.94,73766.3,-8.97,-11.81,-12.29,0,*5D
1486775211.03,48988,10.0,73768.0,-8.97,-11.81,-12.29,0,*52
1486775212.26,48989,9.94,73764.5,-8.97,-11.81,-12.21,0,*5B
1486775213.5,48990,10.0,73768.0,-8.97,-11.81,-12.21,0,*53
1486775214.73,48991,10.0,73768.5,-8.97,-11.81,-12.21,0,*52
1486775215.97,48992,9.94,73766.8,-8.97,-11.67,-12.21,0,*59
1486775217.21,48993,9.94,73768.8,-8.97,-11.81,-12.29,0,*58
1486775218.45,48994,9.94,73764.3,-8.97,-11.89,-12.29,0,*57
1486775219.68,48995,9.94,73764.5,-8.97,-11.81,-12.21,0,*56
1486775220.92,48996,9.94,73770.0,-8.97,-11.81,-12.29,0,*5D
1486775222.15,48997,10.0,73768.0,-8.97,-11.81,-12.29,0,*5C
1486775223.39,48998,9.94,73766.3,-8.97,-11.81,-12.21,0,*5B
1486775224.62,48999,9.94,73766.3,-8.97,-11.81,-12.29,0,*52
1486775225.88,49000,9.94,73770.5,-8.99,-11.89,-12.29,0,*5C
1486775227.14,49001,9.94,73768.0,-8.99,-11.81,-12.21,0,*5D
1486775228.4,49002,9.94,73768.3,-8.99,-11.81,-12.29,0,*56
1486775229.66,49003,9.94,73770.8,-8.99,-11.81,-12.29,0,*57
1486775230.92,49004,10.0,73770.8,-8.99,-11.81,-12.29,0,*50
1486775232.15,49005,10.0,73768.8,-8.97,-11.81,-12.29,0,*5F
1486775233.41,49006,9.94,73768.8,-8.99,-11.81,-12.29,0,*52
1486775234.64,49007,9.94,73768.0,-8.97,-11.81,-12.29,0,*5D
1486775235.9,49008,9.94,73772.5,-8.99,-11.81,-12.29,0,*5C
1486775237.14,49009,9.94,73770.3,-8.97,-11.81,-12.29,0,*53
1486775238.4,49010,9.94,73768.8,-8.99,-11.81,-12.29,0,*55
1486775239.63,49011,9.94,73768.3,-8.97,-11.81,-12.29,0,*5A
1486775240.87,49012,9.94,73768.8,-8.97,-11.81,-12.29,0,*59
1486775242.12,49013,9.94,73764.5,-8.99,-11.81,-12.21,0,*5E
1486775243.36,49014,9.94,73766.3,-8.97,-11.81,-12.29,0,*5F
1486775244.62,49015,9.94,73764.3,-8.99,-11.89,-12.29,0,*58
1486775245.88,49016,9.94,73768.8,-8.99,-11.77,-12.29,0,*5A
1486775247.12,49017,9.94,73768.5,-8.97,-11.89,-12.29,0,*54
1486775248.38,49018,9.94,73770.3,-8.99,-11.77,-12.21,0,*5C
1486775249.64,49019,10.0,73768.3,-8.99,-11.81,-12.29,0,*5C
1486775250.9,49020,9.94,73768.8,-8.99,-11.89,-12.29,0,*5E
1486775252.16,49021,9.94,73770.0,-8.99,-11.81,-12.29,0,*57
1486775253.42,49022,9.94,73766.3,-8.99,-11.89,-12.29,0,*5C
1486775254.71,49023,9.94,73764.5,-8.99,-11.81,-12.35,0,*58
1486775255.99,49024,9.94,73760.5,-8.99,-11.81,-12.35,0,*5F
1486775257.28,49025,9.94,73768.0,-8.99,-11.89,-12.35,0,*56
1486775258.57,49026,9.94,73766.0,-8.99,-11.89,-12.35,0,*55
1486775259.84,49027,9.94,73762.3,-8.99,-11.93,-12.43,0,*5E
1486775261.12,49028,9.94,73762.8,-8.99,-11.81,-12.35,0,*53
1486775262.41,49029,9.94,73762.3,-8.99,-11.89,-12.35,0,*5A
1486775263.67,49030,9.94,73762.8,-8.99,-11.77,-12.29,0,*5E
1486775264.93,49031,9.94,73762.3,-8.99,-11.77,-12.21,0,*57
1486775266.19,49032,10.0,73760.0,-9.03,-11.81,-12.25,0,*5B
1486775267.45,49033,9.94,73760.3,-9.03,-11.81,-12.21,0,*5E
1486775268.72,49034,9.94,73760.5,-9.03,-11.73,-12.21,0,*54
1486775269.98,49035,10.0,73764.0,-8.99,-11.67,-12.21,0,*52
1486775271.26,49036,9.94,73760.8,-8.99,-11.67,-12.15,0,*56
1486775272.55,49037,10.0,73762.3,-8.99,-11.67,-12.15,0,*57
1486775273.83,49038,9.94,73760.8,-8.99,-11.63,-12.07,0,*5F
1486775275.12,49039,9.94,73762.3,-8.99,-11.63,-12.07,0,*5E
1486775276.41,49040,10.0,73764.0,-8.99,-11.63,-12.07,0,*50
1486775277.7,49041,9.94,73762.8,-8.99,-11.67,-12.07,0,*55
1486775278.99,49042,9.94,73758.5,-8.99,-11.63,-12.07,0,*52
1486775280.27,49043,9.94,73760.5,-8.99,-11.59,-12.15,0,*59
1486775281.56,49044,9.94,73760.3,-8.99,-11.63,-12.15,0,*57
1486775282.84,49045,10.0,73760.0,-8.99,-11.63,-12.07,0,*55
1486775284.13,49046,10.0,73760.0,-8.99,-11.67,-12.15,0,*51
1486775285.39,49047,10.0,73766.8,-9.03,-11.81,-12.21,0,*5D
1486775286.65,49048,9.94,73762.5,-9.03,-11.73,-12.21,0,*5F
1486775287.91,49049,9.94,73760.3,-9.03,-11.73,-12.25,0,*5A
1486775289.15,49050,10.0,73760.3,-9.05,-11.73,-12.25,0,*54
1486775290.41,49051,9.94,73758.8,-9.03,-11.73,-12.25,0,*53
1486775291.69,49052,9.94,73758.8,-9.03,-11.73,-12.35,0,*51
1486775292.96,49053,9.94,73756.0,-9.03,-11.73,-12.21,0,*55
1486775294.24,49054,9.94,73760.8,-8.99,-11.67,-12.15,0,*52
1486775295.51,49055,9.94,73760.3,-8.99,-11.67,-12.21,0,*54
1486775296.76,49056,9.94,73762.8,-9.03,-11.81,-12.25,0,*59
1486775298.0,49057,9.94,73758.5,-9.05,-11.73,-12.21,0,*57
1486775299.24,49058,10.0,73760.5,-9.05,-11.73,-12.25,0,*5C
1486775300.53,49059,9.94,73756.0,-9.03,-11.73,-12.35,0,*5A
1486775301.78,49060,9.94,73762.0,-9.03,-11.73,-12.25,0,*51
1486775303.04,49061,9.94,73758.3,-9.03,-11.73,-12.25,0,*50
1486775304.33,49062,9.94,73758.3,-9.03,-11.63,-12.11,0,*55
1486775305.63,49063,9.94,73752.5,-9.03,-11.67,-12.11,0,*50
1486775306.91,49064,9.94,73762.5,-9.03,-11.67,-12.11,0,*57
1486775308.18,49065,9.94,73756.8,-9.03,-11.67,-12.21,0,*55
1486775309.47,49066,9.94,73756.5,-9.03,-11.81,-12.11,0,*5D
1486775310.73,49067,9.94,73760.0,-9.03,-11.81,-12.21,0,*5F